| time (UTC) | temp C | wind direction | speed KPH | gust KPH | rain 1hr cm | rain 24hr cm | rain mn cm | humidity % | barometer mb |
| 20260504231711 | 22 | 190 | 3.2 | 4.8 | 0.00 | 0.00 | 0.00 | 45 | 1009.6 |
| 20260504231207 | 22 | 195 | 3.2 | 4.8 | 0.00 | 0.00 | 0.00 | 44 | 1009.8 |
| 20260504230703 | 22 | 296 | 1.6 | 8.0 | 0.00 | 0.00 | 0.00 | 43 | 1009.9 |
| 20260504230202 | 23 | 192 | 1.6 | 12.9 | 0.00 | 0.00 | 0.00 | 42 | 1009.7 |
| 20260504225700 | 23 | 219 | 1.6 | 11.3 | 0.00 | 0.00 | 0.00 | 42 | 1009.5 |
| 20260504225156 | 23 | 178 | 6.4 | 14.5 | 0.00 | 0.00 | 0.00 | 42 | 1009.4 |
| 20260504224653 | 23 | 204 | 8.0 | 22.5 | 0.00 | 0.00 | 0.00 | 41 | 1009.4 |
| 20260504224150 | 23 | 206 | 11.3 | 20.9 | 0.00 | 0.00 | 0.00 | 41 | 1009.5 |
| 20260504223647 | 23 | 239 | 1.6 | 9.7 | 0.00 | 0.00 | 0.00 | 42 | 1009.5 |
| 20260504223142 | 23 | 211 | 8.0 | 12.9 | 0.00 | 0.00 | 0.00 | 41 | 1009.6 |
| 20260504222640 | 23 | 231 | 8.0 | 12.9 | 0.00 | 0.00 | 0.00 | 41 | 1009.6 |
| 20260504222137 | 23 | 189 | 6.4 | 11.3 | 0.00 | 0.00 | 0.00 | 41 | 1009.5 |
| 20260504221634 | 23 | 203 | 12.9 | 14.5 | 0.00 | 0.00 | 0.00 | 41 | 1009.6 |
| 20260504221131 | 23 | 172 | 9.7 | 14.5 | 0.00 | 0.00 | 0.00 | 41 | 1009.5 |
| 20260504220627 | 23 | 206 | 3.2 | 9.7 | 0.00 | 0.00 | 0.00 | 41 | 1009.2 |
| 20260504220125 | 23 | 225 | 4.8 | 16.1 | 0.00 | 0.00 | 0.00 | 41 | 1009.5 |
| 20260504215621 | 23 | 205 | 3.2 | 8.0 | 0.00 | 0.00 | 0.00 | 41 | 1009.5 |
| 20260504215119 | 23 | 229 | 12.9 | 22.5 | 0.00 | 0.00 | 0.00 | 40 | 1009.4 |
| 20260504214614 | 23 | 224 | 12.9 | 14.5 | 0.00 | 0.00 | 0.00 | 39 | 1009.5 |
| 20260504214111 | 23 | 198 | 11.3 | 20.9 | 0.00 | 0.00 | 0.00 | 40 | 1009.2 |
| 20260504213607 | 23 | 195 | 14.5 | 20.9 | 0.00 | 0.00 | 0.00 | 40 | 1009.4 |
| 20260504213104 | 23 | 208 | 8.0 | 16.1 | 0.00 | 0.00 | 0.00 | 39 | 1009.2 |
| 20260504212600 | 23 | 163 | 16.1 | 17.7 | 0.00 | 0.00 | 0.00 | 39 | 1009.5 |
| 20260504212058 | 23 | 237 | 3.2 | 14.5 | 0.00 | 0.00 | 0.00 | 38 | 1009.5 |
| 20260504211554 | 23 | 142 | 3.2 | 11.3 | 0.00 | 0.00 | 0.00 | 39 | 1009.3 |
| 20260504211051 | 24 | 190 | 11.3 | 22.5 | 0.00 | 0.00 | 0.00 | 39 | 1009.2 |
| 20260504210549 | 24 | 127 | 6.4 | 20.9 | 0.00 | 0.00 | 0.00 | 39 | 1009.3 |
| 20260504210045 | 24 | 190 | 16.1 | 17.7 | 0.00 | 0.00 | 0.00 | 38 | 1009.1 |
| 20260504205543 | 24 | 176 | 6.4 | 9.7 | 0.00 | 0.00 | 0.00 | 38 | 1009.4 |
| 20260504205041 | 23 | 228 | 6.4 | 22.5 | 0.00 | 0.00 | 0.00 | 38 | 1009.1 |
| 20260504204538 | 24 | 208 | 11.3 | 16.1 | 0.00 | 0.00 | 0.00 | 38 | 1009.4 |
| 20260504204038 | 24 | 196 | 6.4 | 14.5 | 0.00 | 0.00 | 0.00 | 38 | 1009.4 |
| 20260504203535 | 23 | 208 | 6.4 | 14.5 | 0.00 | 0.00 | 0.00 | 37 | 1009.4 |
| 20260504203032 | 24 | 191 | 9.7 | 22.5 | 0.00 | 0.00 | 0.00 | 38 | 1009.4 |
| 20260504202527 | 24 | 200 | 6.4 | 14.5 | 0.00 | 0.00 | 0.00 | 38 | 1009.6 |
| 20260504202025 | 24 | 184 | 17.7 | 24.1 | 0.00 | 0.00 | 0.00 | 36 | 1009.4 |
| 20260504201522 | 24 | 179 | 4.8 | 9.7 | 0.00 | 0.00 | 0.00 | 38 | 1009.6 |
| 20260504201020 | 24 | 213 | 8.0 | 16.1 | 0.00 | 0.00 | 0.00 | 38 | 1009.5 |
| 20260504200516 | 24 | 264 | 6.4 | 11.3 | 0.00 | 0.00 | 0.00 | 37 | 1009.4 |
| 20260504200013 | 24 | 184 | 6.4 | 22.5 | 0.00 | 0.00 | 0.00 | 37 | 1009.8 |
| 20260504195509 | 23 | 214 | 6.4 | 11.3 | 0.00 | 0.00 | 0.00 | 38 | 1009.8 |
| 20260504195005 | 23 | 200 | 11.3 | 14.5 | 0.00 | 0.00 | 0.00 | 37 | 1009.9 |
| 20260504194501 | 23 | 196 | 4.8 | 12.9 | 0.00 | 0.00 | 0.00 | 39 | 1010.0 |
| 20260504193957 | 23 | 199 | 14.5 | 17.7 | 0.00 | 0.00 | 0.00 | 37 | 1010.1 |
| 20260504193455 | 23 | 178 | 8.0 | 11.3 | 0.00 | 0.00 | 0.00 | 38 | 1009.9 |
| 20260504192953 | 24 | 150 | 14.5 | 17.7 | 0.00 | 0.00 | 0.00 | 37 | 1010.0 |
| 20260504192450 | 24 | 165 | 19.3 | 24.1 | 0.00 | 0.00 | 0.00 | 36 | 1009.9 |
| 20260504191949 | 24 | 187 | 4.8 | 9.7 | 0.00 | 0.00 | 0.00 | 35 | 1010.0 |
| 20260504191447 | 25 | 192 | 8.0 | 16.1 | 0.00 | 0.00 | 0.00 | 36 | 1010.4 |
| 20260504190941 | 25 | 223 | 4.8 | 8.0 | 0.00 | 0.00 | 0.00 | 35 | 1010.1 |
| 20260504190438 | 24 | 172 | 8.0 | 16.1 | 0.00 | 0.00 | 0.00 | 35 | 1010.4 |
| 20260504185934 | 25 | 193 | 6.4 | 17.7 | 0.00 | 0.00 | 0.00 | 35 | 1010.2 |
| 20260504185432 | 24 | 156 | 8.0 | 9.7 | 0.00 | 0.00 | 0.00 | 35 | 1010.4 |
| 20260504184928 | 23 | 187 | 9.7 | 14.5 | 0.00 | 0.00 | 0.00 | 35 | 1010.4 |
| 20260504184424 | 24 | 228 | 8.0 | 14.5 | 0.00 | 0.00 | 0.00 | 35 | 1010.5 |
| 20260504183920 | 24 | 201 | 16.1 | 22.5 | 0.00 | 0.00 | 0.00 | 35 | 1010.7 |
| 20260504183417 | 23 | 194 | 8.0 | 25.7 | 0.00 | 0.00 | 0.00 | 35 | 1010.5 |
| 20260504182915 | 24 | 230 | 6.4 | 11.3 | 0.00 | 0.00 | 0.00 | 34 | 1011.0 |
| 20260504182412 | 25 | 207 | 8.0 | 12.9 | 0.00 | 0.00 | 0.00 | 34 | 1010.8 |
| 20260504181908 | 24 | 224 | 3.2 | 12.9 | 0.00 | 0.00 | 0.00 | 36 | 1010.9 |
| 20260504181406 | 24 | 158 | 6.4 | 11.3 | 0.00 | 0.00 | 0.00 | 36 | 1011.0 |
| 20260504180905 | 23 | 159 | 11.3 | 24.1 | 0.00 | 0.00 | 0.00 | 34 | 1011.1 |
| 20260504180403 | 23 | 194 | 8.0 | 16.1 | 0.00 | 0.00 | 0.00 | 34 | 1011.2 |
| 20260504175901 | 23 | 180 | 11.3 | 17.7 | 0.00 | 0.00 | 0.00 | 35 | 1011.3 |
| 20260504175357 | 23 | 186 | 0.0 | 8.0 | 0.00 | 0.00 | 0.00 | 36 | 1011.5 |
| 20260504174855 | 23 | 198 | 8.0 | 12.9 | 0.00 | 0.00 | 0.00 | 37 | 1011.5 |
| 20260504174352 | 23 | 180 | 16.1 | 17.7 | 0.00 | 0.00 | 0.00 | 35 | 1011.6 |
| 20260504173849 | 23 | 203 | 11.3 | 17.7 | 0.00 | 0.00 | 0.00 | 37 | 1011.5 |
| 20260504173346 | 23 | 204 | 8.0 | 24.1 | 0.00 | 0.00 | 0.00 | 36 | 1011.6 |
| 20260504172843 | 23 | 195 | 3.2 | 4.8 | 0.00 | 0.00 | 0.00 | 36 | 1011.5 |
| 20260504172340 | 23 | 246 | 4.8 | 12.9 | 0.00 | 0.00 | 0.00 | 36 | 1011.8 |
| 20260504171835 | 23 | 224 | 3.2 | 12.9 | 0.00 | 0.00 | 0.00 | 38 | 1011.8 |
| 20260504171333 | 22 | 181 | 4.8 | 8.0 | 0.00 | 0.00 | 0.00 | 38 | 1012.0 |
| 20260504170830 | 22 | 211 | 14.5 | 17.7 | 0.00 | 0.00 | 0.00 | 38 | 1012.1 |
| 20260504170327 | 22 | 193 | 12.9 | 17.7 | 0.00 | 0.00 | 0.00 | 38 | 1012.2 |
| 20260504160245 | 21 | 200 | 12.9 | 16.1 | 0.00 | 0.00 | 0.00 | 37 | 1012.9 |
| 20260504150710 | 20 | 185 | 11.3 | 14.5 | 0.00 | 0.00 | 0.00 | 39 | 1013.5 |
| 20260504150207 | 20 | 174 | 9.7 | 11.3 | 0.00 | 0.00 | 0.00 | 41 | 1013.5 |
| 20260504141136 | 17 | 179 | 1.6 | 11.3 | 0.00 | 0.00 | 0.00 | 50 | 1013.7 |
| 20260504140633 | 17 | 206 | 4.8 | 12.9 | 0.00 | 0.00 | 0.00 | 49 | 1013.9 |
| 20260504140129 | 17 | 169 | 4.8 | 16.1 | 0.00 | 0.00 | 0.00 | 49 | 1013.6 |
| 20260504130557 | 13 | 185 | 4.8 | 9.7 | 0.00 | 0.00 | 0.00 | 57 | 1014.5 |
| 20260504110445 | 7 | 222 | 0.0 | 0.0 | 0.00 | 0.00 | 0.00 | 89 | 1014.7 |
| 20260504100407 | 7 | 249 | 0.0 | 0.0 | 0.00 | 0.00 | 0.00 | 91 | 1014.7 |
| 20260504081800 | 7 | 250 | 0.0 | 0.0 | 0.00 | 0.00 | 0.00 | 86 | 1015.2 |
| 20260504081256 | 7 | 252 | 0.0 | 0.0 | 0.00 | 0.00 | 0.00 | 85 | 1015.0 |
| 20260504080753 | 7 | 252 | 0.0 | 0.0 | 0.00 | 0.00 | 0.00 | 83 | 1015.0 |
| 20260504080249 | 7 | 252 | 0.0 | 0.0 | 0.00 | 0.00 | 0.00 | 83 | 1015.1 |
| 20260504070217 | 7 | 273 | 1.6 | 1.6 | 0.00 | 0.00 | 0.00 | 81 | 1015.0 |
| 20260504060138 | 7 | 228 | 0.0 | 0.0 | 0.00 | 0.00 | 0.00 | 85 | 1015.4 |
| 20260504050606 | 7 | 221 | 0.0 | 0.0 | 0.00 | 0.00 | 0.00 | 86 | 1015.3 |
| 20260504050103 | 7 | 221 | 0.0 | 0.0 | 0.00 | 0.00 | 0.00 | 86 | 1015.3 |
| 20260504045600 | 7 | 221 | 0.0 | 0.0 | 0.00 | 0.00 | 0.00 | 86 | 1015.3 |
| 20260504045055 | 7 | 221 | 0.0 | 0.0 | 0.00 | 0.00 | 0.00 | 87 | 1015.6 |
| 20260504044553 | 7 | 221 | 0.0 | 0.0 | 0.00 | 0.00 | 0.00 | 87 | 1015.3 |
| 20260504044049 | 7 | 221 | 0.0 | 0.0 | 0.00 | 0.00 | 0.00 | 87 | 1015.5 |
| 20260504043547 | 7 | 221 | 0.0 | 0.0 | 0.00 | 0.00 | 0.00 | 86 | 1015.3 |
| 20260504043044 | 7 | 221 | 0.0 | 0.0 | 0.00 | 0.00 | 0.00 | 85 | 1015.2 |
| 20260504042541 | 7 | 221 | 0.0 | 0.0 | 0.00 | 0.00 | 0.00 | 85 | 1015.2 |
| 20260504042038 | 7 | 221 | 0.0 | 0.0 | 0.00 | 0.00 | 0.00 | 86 | 1015.0 |
| 20260504041533 | 7 | 221 | 0.0 | 0.0 | 0.00 | 0.00 | 0.00 | 86 | 1015.0 |
| 20260504041030 | 7 | 221 | 0.0 | 0.0 | 0.00 | 0.00 | 0.00 | 85 | 1015.3 |
| 20260504040527 | 7 | 221 | 0.0 | 0.0 | 0.00 | 0.00 | 0.00 | 85 | 1015.1 |
| 20260504040024 | 6 | 221 | 0.0 | 0.0 | 0.00 | 0.00 | 0.00 | 85 | 1014.9 |
| 20260504035521 | 6 | 221 | 0.0 | 0.0 | 0.00 | 0.00 | 0.00 | 85 | 1015.0 |
| 20260504035017 | 6 | 221 | 0.0 | 0.0 | 0.00 | 0.00 | 0.00 | 85 | 1015.1 |
| 20260504034515 | 6 | 221 | 0.0 | 0.0 | 0.00 | 0.00 | 0.00 | 85 | 1015.1 |
| 20260504034012 | 6 | 221 | 0.0 | 0.0 | 0.00 | 0.00 | 0.00 | 86 | 1015.2 |
| 20260504033510 | 6 | 221 | 0.0 | 0.0 | 0.00 | 0.00 | 0.00 | 86 | 1015.1 |
| 20260504033007 | 6 | 221 | 0.0 | 0.0 | 0.00 | 0.00 | 0.00 | 87 | 1015.1 |
| 20260504032503 | 6 | 221 | 0.0 | 0.0 | 0.00 | 0.00 | 0.00 | 87 | 1015.0 |
| 20260504032000 | 6 | 221 | 0.0 | 0.0 | 0.00 | 0.00 | 0.00 | 87 | 1015.2 |
| 20260504031457 | 6 | 221 | 0.0 | 0.0 | 0.00 | 0.00 | 0.00 | 87 | 1014.9 |
| 20260504030954 | 6 | 221 | 0.0 | 0.0 | 0.00 | 0.00 | 0.00 | 87 | 1015.1 |
| 20260504030451 | 6 | 221 | 0.0 | 0.0 | 0.00 | 0.00 | 0.00 | 87 | 1015.2 |
| 20260504025946 | 5 | 221 | 0.0 | 0.0 | 0.00 | 0.00 | 0.00 | 86 | 1015.1 |
| 20260504025444 | 6 | 221 | 0.0 | 0.0 | 0.00 | 0.00 | 0.00 | 86 | 1015.1 |
| 20260504024941 | 6 | 221 | 0.0 | 0.0 | 0.00 | 0.00 | 0.00 | 86 | 1014.9 |
| 20260504024438 | 6 | 221 | 0.0 | 0.0 | 0.00 | 0.00 | 0.00 | 85 | 1015.0 |
| 20260504023935 | 6 | 221 | 0.0 | 0.0 | 0.00 | 0.00 | 0.00 | 84 | 1015.1 |
| 20260504023431 | 6 | 221 | 0.0 | 0.0 | 0.00 | 0.00 | 0.00 | 84 | 1015.1 |
| 20260504022927 | 6 | 221 | 0.0 | 0.0 | 0.00 | 0.00 | 0.00 | 84 | 1015.0 |
| 20260504022423 | 6 | 221 | 0.0 | 0.0 | 0.00 | 0.00 | 0.00 | 84 | 1015.2 |
| 20260504021920 | 6 | 221 | 0.0 | 0.0 | 0.00 | 0.00 | 0.00 | 83 | 1015.1 |
| 20260504021417 | 7 | 221 | 0.0 | 0.0 | 0.00 | 0.00 | 0.00 | 82 | 1015.0 |
| 20260504020915 | 7 | 221 | 0.0 | 0.0 | 0.00 | 0.00 | 0.00 | 81 | 1015.0 |
| 20260504020411 | 7 | 221 | 0.0 | 0.0 | 0.00 | 0.00 | 0.00 | 81 | 1014.8 |
| 20260504015908 | 7 | 221 | 0.0 | 0.0 | 0.00 | 0.00 | 0.00 | 79 | 1014.9 |
| 20260504015404 | 7 | 221 | 0.0 | 0.0 | 0.00 | 0.00 | 0.00 | 78 | 1014.9 |
| 20260504014900 | 7 | 221 | 0.0 | 0.0 | 0.00 | 0.00 | 0.00 | 76 | 1014.6 |
| 20260504014356 | 7 | 221 | 0.0 | 0.0 | 0.00 | 0.00 | 0.00 | 76 | 1014.7 |
| 20260504013853 | 7 | 221 | 0.0 | 0.0 | 0.00 | 0.00 | 0.00 | 74 | 1014.5 |
| 20260504013351 | 8 | 221 | 0.0 | 0.0 | 0.00 | 0.00 | 0.00 | 73 | 1014.6 |
| 20260504012847 | 8 | 221 | 0.0 | 0.0 | 0.00 | 0.00 | 0.00 | 72 | 1014.6 |
| 20260504012345 | 8 | 220 | 0.0 | 0.0 | 0.00 | 0.00 | 0.00 | 72 | 1014.5 |
| 20260504011843 | 8 | 215 | 0.0 | 0.0 | 0.00 | 0.00 | 0.00 | 70 | 1014.5 |
| 20260504011339 | 8 | 302 | 0.0 | 0.0 | 0.00 | 0.00 | 0.00 | 66 | 1014.3 |
| 20260504010835 | 9 | 302 | 0.0 | 0.0 | 0.00 | 0.00 | 0.00 | 65 | 1014.4 |
| 20260504010331 | 9 | 303 | 0.0 | 0.0 | 0.00 | 0.00 | 0.00 | 63 | 1014.4 |
| 20260504005828 | 9 | 302 | 0.0 | 0.0 | 0.00 | 0.00 | 0.00 | 63 | 1014.2 |
| 20260504005324 | 9 | 275 | 0.0 | 0.0 | 0.00 | 0.00 | 0.00 | 61 | 1014.4 |
| 20260504004822 | 10 | 297 | 0.0 | 0.0 | 0.00 | 0.00 | 0.00 | 60 | 1014.1 |
| 20260504004320 | 10 | 297 | 0.0 | 0.0 | 0.00 | 0.00 | 0.00 | 59 | 1014.3 |
| 20260504003816 | 10 | 297 | 0.0 | 0.0 | 0.00 | 0.00 | 0.00 | 57 | 1014.2 |
| 20260504003313 | 10 | 305 | 0.0 | 0.0 | 0.00 | 0.00 | 0.00 | 55 | 1014.2 |
| 20260504002809 | 11 | 307 | 0.0 | 0.0 | 0.00 | 0.00 | 0.00 | 54 | 1014.0 |
| 20260504002306 | 11 | 308 | 0.0 | 0.0 | 0.00 | 0.00 | 0.00 | 53 | 1014.0 |
| 20260504001804 | 11 | 307 | 0.0 | 0.0 | 0.00 | 0.00 | 0.00 | 50 | 1014.0 |
| 20260504001301 | 12 | 307 | 0.0 | 0.0 | 0.00 | 0.00 | 0.00 | 49 | 1014.1 |
| 20260504000758 | 12 | 307 | 0.0 | 0.0 | 0.00 | 0.00 | 0.00 | 48 | 1014.0 |
| 20260504000254 | 13 | 307 | 0.0 | 1.6 | 0.00 | 0.00 | 0.00 | 45 | 1014.0 |
| 20260503235753 | 13 | 309 | 0.0 | 0.0 | 0.00 | 0.00 | 0.00 | 42 | 1013.9 |
| 20260503235250 | 13 | 309 | 0.0 | 0.0 | 0.00 | 0.00 | 0.00 | 39 | 1013.8 |
| 20260503234747 | 14 | 310 | 0.0 | 0.0 | 0.00 | 0.00 | 0.00 | 38 | 1014.0 |
| 20260503234245 | 14 | 302 | 0.0 | 0.0 | 0.00 | 0.00 | 0.00 | 37 | 1013.8 |
| 20260503233742 | 15 | 300 | 0.0 | 0.0 | 0.00 | 0.00 | 0.00 | 36 | 1013.9 |
| 20260503233238 | 15 | 298 | 0.0 | 0.0 | 0.00 | 0.00 | 0.00 | 37 | 1013.7 |
| 20260503232735 | 15 | 298 | 0.0 | 0.0 | 0.00 | 0.00 | 0.00 | 33 | 1013.7 |
| 20260503232232 | 16 | 299 | 0.0 | 0.0 | 0.00 | 0.00 | 0.00 | 33 | 1014.0 |